Regional Weather Roundup
Issued by NWS Cleveland, OH

Home | Current Version | Previous Version | Graphics & Text | Print | Product List | Glossary On
Versions: 1 2 3 4 5 6 7 8 9 10 11 12 13 14 15 16 17 18 19 20 21 22 23 24 25 26 27 28 29 30 31 32 33 34 35 36 37 38 39 40 41 42 43 44 45 46 47 48 49 50
000
ASUS41 KCLE 110110
RWRCLE
OHIO REGIONAL WEATHER ROUNDUP
NATIONAL WEATHER SERVICE CLEVELAND, OH
800 PM EST WED FEB 10 2016

NOTE: "FAIR" INDICATES FEW OR NO CLOUDS BELOW 12,000 FEET WITH NO
SIGNIFICANT WEATHER AND/OR OBSTRUCTIONS TO VISIBILITY.

OHZ001>008-015>018-024>027-034-035-043-044-110200-
   NORTHWEST OHIO

CITY           SKY/WX    TMP DP  RH WIND       PRES   REMARKS
DEFIANCE       CLOUDY    18   9  68 W9G17     30.02R WCI   7
FINDLAY        CLOUDY    18  11  74 W22       29.98R WCI   1
TOLEDO EXPRESS CLOUDY    19  10  68 W15G23    29.97R WCI   5
TOLEDO EXEC    CLOUDY    20  10  65 W14       29.97R WCI   7
LIMA           FLURRIES  15   9  76 W21       30.01R WCI  -2
$$

OHZ009>014-019>023-028>033-038-089-110200-
   NORTHEAST OHIO

CITY           SKY/WX    TMP DP  RH WIND       PRES   REMARKS
CLE-HOPKINS    LGT SNOW  19  14  81 SW12      29.93S WCI   7
CLE-LAKEFRONT  SNOW      21  18  88 W22G31    29.91R VSB 1/4 WCI   5
CUY CO. ARPT   LGT SNOW  21  18  86 W16       29.90R VSB 3/4 WCI   7
LORAIN-ELYRIA  CLOUDY    18  13  80 W13       29.93S WCI   5
ASHTABULA      LGT SNOW  17  13  84 W8        29.87S FOG     WCI   7
AKRON-CANTON   LGT SNOW  17  11  77 W13       29.90R VSB 1   WCI   4
WOOSTER        LGT SNOW  17  12  80 W13       29.92R WCI   4
MANSFIELD      LGT SNOW  15  10  80 SW10G22   29.93R WCI   2
YOUNGSTOWN     LGT SNOW  18  14  84 W9        29.86S VSB 1   WCI   7
$$

OHZ042-051>053-060>062-070>072-077>081-110200-
  SOUTHWEST OHIO

CITY           SKY/WX    TMP DP  RH WIND       PRES   REMARKS
CINC-COVINGTON MOCLDY    17   6  62 NW10      30.09R WCI   5
CINC-LUNKEN    FLURRIES  19   8  62 W9        30.13R WCI   8
HAMILTON       MOCLDY    15   6  67 NW5       30.12R WCI   8
DAYTON         CLOUDY    13   6  74 W15       30.06R WCI  -3
WRIGHT-PAT AFB CLOUDY    15   5  67 W12       30.06S WCI   1
DAYTON GENERAL CLOUDY    14   3  61 W10       30.07R WCI   1
WILMINGTON     CLOUDY    13   4  67 W10       30.05R WCI   0
$$

OHZ036-037-039>041-045>050-054>059-063>069-073>076-082>088-110200-
  CENTRAL AND SOUTHEAST OHIO

CITY           SKY/WX    TMP DP  RH WIND       PRES   REMARKS
COLUMBUS       CLOUDY    15   5  64 W14G21    30.03R WCI   0
OSU AIRPORT    CLEAR     14   7  73 W15G22    30.02R WCI  -1
BOLTON FIELD   CLOUDY    15   9  76 W14G20    30.04R WCI   0
RICKENBACK AFB CLOUDY    13   7  78 SW10      30.05R WCI   0
NEWARK         PTCLDY    15   6  67 MISG      30.01R
MARION         CLOUDY    16   6  65 W14       29.99R WCI   2
LANCASTER      CLOUDY    15   6  67 W14G22    30.05R WCI   0
ZANESVILLE     CLOUDY    17   9  70 W13G21    30.00R WCI   4
NEW PHILLY     MOCLDY    18   9  68 W12G18    29.97R WCI   5
$$



USA.gov is the U.S. government's official web portal to all federal, state and local government web resources and services.